EW3148 Weather Reports


time (UTC)temp
F
wind
direction
speed
knots
gust
knots
rain 1hr
in
rain 24hr
in
rain mn
in
humidity
%
barometer
mb
20260903063226 82 155 4.3 13.0 0.00 0.00 0.00 78 1010.3
20260903062237 82 180 5.2 13.0 0.00 0.00 0.00 77 1010.4
20260903061214 82 205 5.2 17.4 0.00 0.00 0.00 75 1010.5
20260903060231 83 202 5.2 17.4 0.00 0.00 0.00 73 1010.5
20260903054050 83 170 5.2 13.0 0.00 0.00 0.00 70 1010.4
20260903053034 84 153 5.2 13.0 0.00 0.00 0.00 69 1010.5
20260903052017 84 133 5.2 11.3 0.00 0.00 0.00 68 1010.5
20260903051009 84 153 4.3 11.3 0.00 0.00 0.00 67 1010.4
20260903044921 85 167 3.5 10.4 0.00 0.00 0.00 65 1010.2
20260903043939 85 173 2.6 10.4 0.00 0.00 0.00 64 1010.2
20260903042953 85 128 2.6 7.0 0.00 0.00 0.00 64 1010.1
20260903042011 85 117 2.6 7.8 0.00 0.00 0.00 63 1010.1
20260903040946 86 128 2.6 8.7 0.00 0.00 0.00 62 1010.0
20260903035959 86 126 2.6 8.7 0.00 0.00 0.00 62 1009.9
20260903035015 86 69 2.6 11.3 0.00 0.00 0.00 60 1010.0
20260903034024 87 181 3.5 11.3 0.00 0.00 0.00 59 1010.0
20260903031826 87 202 1.7 6.1 0.00 0.00 0.00 58 1009.8
20260903030811 88 113 1.7 6.1 0.00 0.00 0.00 57 1009.5
20260903023533 89 119 1.7 6.1 0.00 0.00 0.00 55 1009.0
20260903021424 89 107 0.9 5.2 0.00 0.00 0.00 53 1008.6
20260903020415 90 112 1.7 5.2 0.00 0.00 0.00 53 1008.4
20260903015403 90 117 0.9 2.6 0.00 0.00 0.00 51 1008.3
20260903014334 91 109 0.9 2.6 0.00 0.00 0.00 50 1008.3
20260903012226 93 99 0.0 1.7 0.00 0.00 0.00 47 1008.1
20260903011250 94 90 0.0 1.7 0.00 0.00 0.00 46 1008.0
20260903005150 95 128 0.0 0.9 0.00 0.00 0.00 43 1008.0
20260903004152 96 128 0.0 0.9 0.00 0.00 0.00 42 1008.1
20260903003156 96 128 0.9 2.6 0.00 0.00 0.00 41 1008.0
20260903001035 97 168 0.9 3.5 0.00 0.00 0.00 40 1008.1
20260903000044 98 161 0.0 2.6 0.00 0.00 0.00 40 1008.1
20260902233928 100 174 0.9 4.3 0.00 0.00 0.00 38 1008.0
20260902232859 101 174 0.9 3.5 0.00 0.00 0.00 37 1008.1
20260902231827 101 178 0.0 7.0 0.00 0.00 0.00 37 1008.2
20260902230825 101 211 0.9 7.0 0.00 0.00 0.00 38 1008.2
20260902225757 101 216 0.9 7.0 0.00 0.00 0.00 38 1008.2
20260902224739 100 236 1.7 7.0 0.00 0.00 0.00 39 1008.2
20260902223718 99 148 2.6 6.1 0.00 0.00 0.00 40 1008.2
20260902220408 97 161 1.7 5.2 0.00 0.00 0.00 43 1008.5
20260902215425 97 197 1.7 5.2 0.00 0.00 0.00 44 1008.5
20260902214407 97 209 3.5 7.8 0.00 0.00 0.00 44 1008.6
20260902212305 97 199 3.5 8.7 0.00 0.00 0.00 46 1008.9
20260902211258 98 182 2.6 8.7 0.00 0.00 0.00 44 1009.0
20260902210253 97 193 1.7 10.4 0.00 0.00 0.00 45 1009.0
20260902205236 98 176 2.6 10.4 0.00 0.00 0.00 44 1009.1
20260902203031 101 222 1.7 7.0 0.00 0.00 0.00 39 1009.3
20260902200858 99 261 1.7 7.0 0.00 0.00 0.00 41 1009.6
20260902195914 97 157 1.7 5.2 0.00 0.00 0.00 42 1009.8
20260902194848 97 31 1.7 5.2 0.00 0.00 0.00 43 1010.0
20260902193831 96 56 1.7 6.1 0.00 0.00 0.00 43 1010.1
20260902192834 97 101 1.7 6.1 0.00 0.00 0.00 43 1010.2
20260902191819 97 76 1.7 4.3 0.00 0.00 0.00 43 1010.4
20260902190822 97 47 2.6 7.8 0.00 0.00 0.00 43 1010.4
20260902185844 99 51 0.9 7.8 0.00 0.00 0.00 41 1010.6
20260902184826 100 215 1.7 7.8 0.00 0.00 0.00 38 1010.7
20260902183817 103 201 1.7 7.8 0.00 0.00 0.00 37 1010.8
20260902182755 101 182 2.6 7.0 0.00 0.00 0.00 38 1010.9
20260902181816 101 155 1.7 7.0 0.00 0.00 0.00 38 1011.1
20260902180746 101 196 1.7 7.8 0.00 0.00 0.00 38 1011.4
20260902175748 101 199 1.7 7.0 0.00 0.00 0.00 39 1011.6
20260902174730 100 135 1.7 5.2 0.00 0.00 0.00 40 1011.8
20260902172620 97 302 2.6 7.0 0.00 0.00 0.00 43 1012.1
20260902171635 97 252 1.7 6.1 0.00 0.00 0.00 43 1012.2
20260902170610 98 269 1.7 6.1 0.00 0.00 0.00 43 1012.4
20260902165545 97 238 0.9 5.2 0.00 0.00 0.00 44 1012.5
20260902164554 96 266 1.7 8.7 0.00 0.00 0.00 45 1012.6
20260902161351 94 196 1.7 6.1 0.00 0.00 0.00 48 1012.8
20260902160356 93 272 2.6 8.7 0.00 0.00 0.00 49 1012.8
20260902155332 92 273 1.7 8.7 0.00 0.00 0.00 51 1012.7
20260902153242 90 247 2.6 8.7 0.00 0.00 0.00 54 1012.6
20260902152217 89 275 2.6 10.4 0.00 0.00 0.00 57 1012.7
20260902151212 88 254 2.6 10.4 0.00 0.00 0.00 60 1012.7
20260902143820 86 225 1.7 7.0 0.00 0.00 0.00 67 1012.9
20260902142810 85 257 0.9 5.2 0.00 0.00 0.00 71 1012.9
20260902134357 81 257 0.9 6.1 0.00 0.00 0.00 78 1012.7
20260902133407 80 262 0.9 5.2 0.00 0.00 0.00 79 1012.7
20260902132414 79 214 0.9 5.2 0.00 0.00 0.00 80 1012.6
20260902131340 78 230 0.9 2.6 0.00 0.00 0.00 81 1012.5
20260902130309 77 240 0.0 2.6 0.00 0.00 0.00 82 1012.4
20260902125257 77 254 0.0 0.9 0.00 0.00 0.00 81 1012.4
20260902124222 77 237 0.0 0.0 0.00 0.00 0.00 81 1012.3
20260902123210 77 207 0.0 0.0 0.00 0.00 0.00 81 1012.1
20260902122227 77 236 0.0 0.9 0.00 0.00 0.00 81 1012.0
20260902121239 77 187 0.0 0.0 0.00 0.00 0.00 80 1012.0
20260902120214 77 187 0.0 0.9 0.00 0.00 0.00 80 1012.0
20260902115150 77 187 0.0 0.0 0.00 0.00 0.00 80 1012.0
20260902114120 77 211 0.0 0.0 0.00 0.00 0.00 79 1012.0
20260902113125 77 210 0.0 0.0 0.00 0.00 0.00 79 1011.9
20260902105900 78 311 0.0 0.0 0.00 0.00 0.00 77 1011.8
20260902104908 79 318 0.0 0.9 0.00 0.00 0.00 76 1011.7
20260902103832 79 261 0.0 1.7 0.00 0.00 0.00 76 1011.7
20260902102821 79 239 0.0 5.2 0.00 0.00 0.00 76 1011.7
20260902100613 79 237 0.9 6.1 0.00 0.00 0.00 76 1011.5
20260902093318 79 231 0.9 7.0 0.00 0.00 0.00 76 1011.5
20260902091158 80 254 1.7 3.5 0.00 0.00 0.00 75 1011.5
20260902085107 80 194 0.9 6.1 0.00 0.00 0.00 73 1011.7
20260902082914 80 200 1.7 5.2 0.00 0.00 0.00 72 1011.8
20260902081852 80 210 1.7 5.2 0.00 0.00 0.00 72 1011.9
20260902080904 81 199 0.9 5.2 0.00 0.00 0.00 72 1011.9
20260902074740 81 209 1.7 6.1 0.00 0.00 0.00 71 1011.8
20260902073722 81 174 1.7 4.3 0.00 0.00 0.00 70 1011.9
20260902071528 82 197 1.7 7.0 0.00 0.00 0.00 70 1011.9
20260902070534 82 207 1.7 7.0 0.00 0.00 0.00 69 1012.0
20260902064333 82 210 1.7 7.0 0.00 0.00 0.00 70 1012.1